Orbital Elements at Epoch 2459200.5 (2020-Dec-17.0) TDB
Reference: JPL 18 (heliocentric ecliptic J2000)
Element | Value | Uncertainty (1-sigma) | Units |
e | .08612370391628109 | 4.3149e-08 | |
a | 2.239716549892445 | 1.007e-08 | au |
q | 2.046823864893114 | 9.6349e-08 | au |
i | 2.781906176391443 | 4.706e-06 | deg |
node | 123.9334982594856 | 7.682e-05 | deg |
peri | 182.946192364257 | 8.0053e-05 | deg |
M | 148.8346419812428 | 2.1426e-05 | deg |
tp | 2458694.337994833593 (2019-Jul-29.83799483) | 7.3419e-05 | TDB |
period | 1224.300468185834 3.35 | 8.2567e-06 2.261e-08 | d yr |
n | .2940454646182137 | 1.983e-09 | deg/d |
Q | 2.432609234891777 | 1.0937e-08 | au |
|
| | Orbit Determination Parameters
Additional Information
|